星链-5729 (STARLINK-5729 )

导读

STARLINK-5729是美国SpaceX公司星链星座下的低轨互联网卫星,于2023年2月12日发射升空。作为星链大规模组网部署的一环,运行在近地轨道,旨在为全球尤其是偏远区域提供高速低延迟的宽带互联网服务,助力填补数字鸿沟,不过星链卫星的大规模部署也引发了太空交通与天文观测相关争议。

Basic Information
目录编号:
55596
目录名称:
STARLINK-5729
国际标识:
2023-020AD
轨道中心:
EARTH
卫星名称:
星链-5729
卫星全名:
星链-5729 (STARLINK-5729 )
卫星状态:
在轨 (已飞行1219 天)
发射日期:
2023-02-12 UTC
国别 :
美国 (US)
星等 :
--
Orbit Information
数据来源 国际轨道数据 AOE轨道数据
星历时间 2026-06-15T01:15:49+0800
10小时前
查看轨道信息
2026-06-10T06:00:00+0800
5天前
查看轨道信息
半长轴 6861.194km 6861.142km
偏心率 0.0001125 0.0000919
轨道倾角 43.009° 42.995°
近地点辐角 303.982° 201.913°
升交点赤经 177.104° 204.232°
平近点角 56.093° 356.249°
近地点 482.285km 482.374km
远地点 483.829km 483.636km
周期 94.267分钟 94.266分钟
每日圈数 15.275774 15.275948
Detailed Information
固有亮度:
5
最大亮度:
2.5
卫星平台:
Starlink v1.5
覆盖范围:
全球
运营商:
太空探索技术公司
运营商所在国:
美国
制造商(研发单位):
太空探索技术公司
制造商所在国:
美国
使用方式:
暂无
Satellite Introduction
星链(Starlink)计划是由太空探索技术公司(SpaceX)提出的一个巨型低轨卫星互联网星座项目,计划在2019年至2024年间在太空搭建由约1.2万颗卫星组成的“星链”网络,其中1584颗将部署在地球上空550千米处的近地轨道,并从2020年开始工作。该卫星仍在工作。
2D Orbit Map
3D Orbit Map
Orbit Altitude Analysis Chart
Orbit Inclination Analysis Chart
Orbit Comprehensive Analysis Chart
View Comprehensive Chart